Covington, KY

10:11 PM EDT on March 24, 2017 (GMT -0400)
Cincinnati-Northern KY International

Weather History for KCVG - September, 2013

Change the Weather History Date:

Saturday, September 7, 2013

  Actual Average Record
Temperature  
Mean Temperature 71 °F 71 °F  
Max Temperature 85 °F 82 °F 99 °F (1939)
Min Temperature 56 °F 61 °F 41 °F (1988)
Degree Days  
Heating Degree Days 0 1  
Month to date heating degree days 0 1  
Since 1 July heating degree days 4 1  
Cooling Degree Days 6 7  
Month to date cooling degree days 48 52  
Year to date cooling degree days 1024 1020  
Growing Degree Days 20 (Base 50)    
Moisture  
Dew Point 61 °F    
Average Humidity 72    
Maximum Humidity 93    
Minimum Humidity 51    
Precipitation  
Precipitation T in 0.08 in 2.04 in (1917)
Month to date precipitation 0.01 0.60  
Year to date precipitation 33.06 30.39  
Snow  
Snow 0.00 in 0.00 in 0.00 in ()
Month to date snowfall 0.0 0.0  
Since 1 July snowfall 0.0 0.0  
Since 1 September snowfall 0.0 0.0  
Snow Depth 0.00 in    
Sea Level Pressure  
Sea Level Pressure 30.03 in    
Wind  
Wind Speed 4 mph (SSW)    
Max Wind Speed 12 mph    
Max Gust Speed 15 mph    
Visibility 10 miles    
Events      
T = Trace of Precipitation, MM = Missing Value Source: NWS Daily Summary

Daily Weather History Graph

Daily Weather History Graph

Search for Another Location

Airport or City:

Trip Planner

Search our weather history database for the weather conditions in past years. The results will help you decide how hot, cold, wet, or windy it might be!

Date:

Astronomy

Sep. 07, 2013 Rise Set
Actual Time 7:13 AM EDT 7:59 PM EDT
Civil Twilight 6:45 AM EDT 8:26 PM EDT
Nautical Twilight 6:13 AM EDT 8:58 PM EDT
Astronomical Twilight 5:40 AM EDT 9:31 PM EDT
Moon 9:24 AM EDT (9/7) 8:59 PM EDT (9/7)
Length of Visible Light 13h 40m
Length of Day
12h 46m
Waxing Crescent, 5% of the Moon is Illuminated
Sep 7
Waxing Crescent
Sep 12
First Quarter
Sep 19
Full
Sep 26
Last Quarter
Oct 4
New

Hourly Weather History & Observations

Time (EDT) Temp. Heat Index Dew Point Humidity Pressure Visibility Wind Dir Wind Speed Gust Speed Precip Events Conditions
1:52 AM 64.0 °F - 53.1 °F 67% 30.09 in 10.0 mi South 4.6 mph - N/A   Partly Cloudy
2:52 AM 62.1 °F - 53.1 °F 72% 30.09 in 10.0 mi South 4.6 mph - N/A   Clear
3:52 AM 63.0 °F - 53.1 °F 70% 30.09 in 10.0 mi South 3.5 mph - N/A   Clear
4:52 AM 63.0 °F - 53.1 °F 70% 30.08 in 10.0 mi Calm Calm - N/A   Clear
5:52 AM 61.0 °F - 54.0 °F 78% 30.08 in 10.0 mi Calm Calm - N/A   Clear
6:52 AM 57.0 °F - 54.0 °F 89% 30.09 in 10.0 mi Calm Calm - N/A   Clear
7:52 AM 57.9 °F - 55.0 °F 90% 30.09 in 10.0 mi Calm Calm - N/A   Partly Cloudy
8:52 AM 66.0 °F - 57.9 °F 75% 30.08 in 10.0 mi SSW 3.5 mph - N/A   Scattered Clouds
9:52 AM 72.0 °F - 59.0 °F 64% 30.08 in 10.0 mi SW 6.9 mph - N/A   Scattered Clouds
10:52 AM 75.9 °F - 62.1 °F 62% 30.08 in 10.0 mi SW 6.9 mph - N/A   Scattered Clouds
11:52 AM 79.0 °F - 64.0 °F 60% 30.07 in 10.0 mi WSW 5.8 mph - N/A   Mostly Cloudy
12:52 PM 81.0 °F 83.0 °F 66.0 °F 60% 30.06 in 10.0 mi SW 6.9 mph - N/A   Mostly Cloudy
1:52 PM 82.0 °F 84.1 °F 66.0 °F 58% 30.04 in 10.0 mi SW 8.1 mph - N/A   Mostly Cloudy
2:52 PM 84.0 °F 86.3 °F 66.0 °F 55% 30.01 in 10.0 mi SW 10.4 mph - N/A   Mostly Cloudy
3:52 PM 82.9 °F 84.4 °F 64.0 °F 53% 29.98 in 10.0 mi SW 6.9 mph - N/A   Mostly Cloudy
4:52 PM 84.0 °F 85.4 °F 64.0 °F 51% 29.97 in 10.0 mi SSW 6.9 mph - N/A   Mostly Cloudy
5:52 PM 84.0 °F 85.4 °F 64.0 °F 51% 29.97 in 10.0 mi SW 5.8 mph - N/A   Mostly Cloudy
6:52 PM 82.0 °F 83.4 °F 64.0 °F 54% 29.96 in 10.0 mi SW 4.6 mph - N/A   Mostly Cloudy
7:52 PM 78.1 °F - 64.9 °F 64% 29.96 in 10.0 mi SSW 3.5 mph - N/A   Mostly Cloudy
8:52 PM 73.9 °F - 66.0 °F 76% 29.97 in 10.0 mi Calm Calm - 0.00 in   Mostly Cloudy
9:52 PM 72.0 °F - 66.0 °F 81% 29.97 in 10.0 mi South 3.5 mph - N/A   Mostly Cloudy
10:52 PM 73.9 °F - 66.9 °F 79% 29.97 in 10.0 mi SSW 3.5 mph - N/A   Mostly Cloudy
11:52 PM 73.0 °F - 66.9 °F 81% 29.96 in 10.0 mi WSW 4.6 mph - N/A   Overcast